Lid_Strength_Index
4 4 3 3 3 2 2 2 2 2 1 1 1 1 1 0 0 1 1 0 0 1 0 0 -1 -1 -0 -0 -0 -0 -1 -0 -0
5 5 4 4 3 2 2 2 2 1 1 1 1 1 0 0 0 0 1 0 0 0 -0 -0 -0 -1 -0 -0 -0 -0 -0 -0 0
5 5 4 4 3 2 2 2 1 1 1 1 1 1 0 1 0 0 0 0 0 -0 -0 -0 -1 -0 -0 -0 -0 -0 -0 0 -0
5 5 4 4 3 2 2 2 1 1 1 1 1 1 1 1 1 0 0 0 0 0 -0 -0 -0 -0 -0 -0 0 0 0 0 0
5 5 4 4 3 3 3 2 2 2 1 1 1 1 1 1 1 0 0 1 0 -0 0 -0 -0 -0 -0 -0 0 0 1 1 1
5 5 4 4 3 3 3 2 2 1 1 1 1 1 1 1 1 1 1 1 0 -0 0 -0 -0 -0 0 0 0 1 1 0 1
5 5 4 4 4 3 3 2 2 2 1 1 1 1 1 1 1 1 1 0 0 0 0 0 0 0 0 0 0 0 0 1 1
5 5 5 4 4 3 3 2 2 2 1 1 1 1 1 1 1 0 0 0 0 0 0 0 0 0 0 0 0 0 1 0 1
6 5 5 4 3 3 3 3 2 2 2 1 1 1 1 1 0 1 1 1 1 0 1 1 1 1 1 1 1 2 2 1 1
6 5 5 4 4 3 3 3 2 2 2 1 1 1 1 1 1 1 1 1 1 1 1 1 1 1 0 1 0 3 3 2 0
5 5 4 4 3 3 3 2 2 1 1 1 2 1 1 1 1 1 1 1 1 1 1 1 1 1 0 0 0 1 3 2 1
4 3 3 3 2 2 2 2 2 1 1 2 2 2 1 1 1 1 1 1 1 1 1 1 1 1 1 1 0 2 3 2 1
3 3 2 3 2 2 2 2 1 2 2 2 2 1 1 1 1 1 1 1 1 1 1 1 1 1 0 1 1 2 3 2 1
3 2 2 2 2 2 2 1 1 2 2 2 1 1 1 1 0 1 1 1 1 1 1 1 1 1 1 0 1 1 4 4 1
3 3 2 2 2 2 1 1 1 2 2 1 1 0 1 1 0 1 1 1 1 1 1 1 2 2 2 1 0 2 3 5 3
3 3 2 2 2 2 1 1 1 2 2 2 1 1 1 1 0 0 0 1 1 2 1 2 2 2 2 2 1 1 3 5 4
3 3 3 2 2 2 2 2 2 3 3 2 1 1 1 1 1 1 1 1 1 1 2 2 2 3 3 2 2 1 1 1 2
3 2 2 2 2 2 2 3 3 3 2 2 2 1 1 2 2 2 1 1 2 1 1 1 2 2 2 2 2 2 3 2 1
3 3 2 2 2 3 3 3 3 2 2 1 1 2 2 2 3 3 2 2 2 4 5 6 8 9 7 1 5 8 9 10 11
3 2 2 2 3 3 3 3 3 2 1 1 1 2 2 3 3 3 3 2 2 3 2 4 5 8 9 10 9 10 11 10 12